EZY38MA EGGD-EGNS

Flight info

Callsign EZY38MA
Flight time 0h 45m
Altitude 24000
Route BCN P69 DIZIM N864 WAL M146 LUSOD DCT IOM
Aircraft A320/M-SDE2E3FGHIJ1RWXY/LB1

Departure

Time 2026-04-20 21:12
Airport Bristol Airport (EGGD)

Arrival

Time 2026-04-20 21:57
Airport Isle of Man Airport (EGNS)
Time Latitude Longitude Altitude Speed Heading
2026-04-20 20:42 51.38553 -2.70303 621 ft 0 kts 356°
2026-04-20 21:02 51.38538 -2.70301 627 ft 2 kts 356°
2026-04-20 21:03 51.38521 -2.70299 621 ft 2 kts 356°
2026-04-20 21:03 51.38505 -2.70292 619 ft 2 kts 316°
2026-04-20 21:03 51.38494 -2.70272 625 ft 2 kts 269°
2026-04-20 21:03 51.38494 -2.70266 625 ft 0 kts 263°
2026-04-20 21:05 51.38494 -2.70269 625 ft 2 kts 263°
2026-04-20 21:05 51.38489 -2.70327 619 ft 9 kts 262°
2026-04-20 21:05 51.38479 -2.70422 618 ft 8 kts 260°
2026-04-20 21:05 51.38472 -2.70487 609 ft 0 kts 259°
2026-04-20 21:06 51.38471 -2.70496 610 ft 3 kts 264°
2026-04-20 21:06 51.38475 -2.70552 610 ft 7 kts 276°
2026-04-20 21:06 51.38477 -2.70658 610 ft 11 kts 267°
2026-04-20 21:06 51.38472 -2.70787 612 ft 10 kts 266°
2026-04-20 21:07 51.38468 -2.70874 614 ft 5 kts 266°
2026-04-20 21:07 51.38466 -2.70949 614 ft 10 kts 266°
2026-04-20 21:07 51.38460 -2.71086 615 ft 15 kts 266°
2026-04-20 21:07 51.38453 -2.71284 627 ft 20 kts 266°
2026-04-20 21:08 51.38443 -2.71515 616 ft 23 kts 265°
2026-04-20 21:08 51.38434 -2.71768 606 ft 23 kts 267°
2026-04-20 21:08 51.38432 -2.72029 605 ft 23 kts 268°
2026-04-20 21:08 51.38423 -2.72272 614 ft 20 kts 267°
2026-04-20 21:09 51.38415 -2.72468 612 ft 16 kts 266°
2026-04-20 21:09 51.38411 -2.72584 622 ft 16 kts 266°
2026-04-20 21:09 51.38405 -2.72740 617 ft 16 kts 266°
2026-04-20 21:09 51.38396 -2.72957 605 ft 21 kts 266°
2026-04-20 21:10 51.38385 -2.73225 610 ft 12 kts 261°
2026-04-20 21:10 51.38365 -2.73297 620 ft 8 kts 233°
2026-04-20 21:10 51.38326 -2.73338 618 ft 7 kts 197°
2026-04-20 21:10 51.38275 -2.73338 620 ft 8 kts 171°
2026-04-20 21:11 51.38229 -2.73309 628 ft 5 kts 146°
2026-04-20 21:11 51.38215 -2.73249 627 ft 14 kts 88°
2026-04-20 21:11 51.38236 -2.72709 631 ft 86 kts 86°
2026-04-20 21:11 51.38287 -2.71393 611 ft 148 kts 86°
2026-04-20 21:12 51.38347 -2.69744 1297 ft 146 kts 87°
2026-04-20 21:12 51.38394 -2.68130 2114 ft 144 kts 87°
2026-04-20 21:12 51.38442 -2.66417 2611 ft 164 kts 89°
2026-04-20 21:12 51.38380 -2.64471 2950 ft 186 kts 89°
2026-04-20 21:13 51.38756 -2.62393 3260 ft 214 kts 57°
2026-04-20 21:13 51.40032 -2.60931 3715 ft 246 kts 18°
2026-04-20 21:13 51.41792 -2.61097 4506 ft 266 kts 340°
2026-04-20 21:13 51.43307 -2.62832 5458 ft 275 kts 316°
2026-04-20 21:14 51.44530 -2.65203 6206 ft 276 kts 308°
2026-04-20 21:14 51.45612 -2.67745 7279 ft 276 kts 306°
2026-04-20 21:14 51.46692 -2.70301 8285 ft 276 kts 306°
2026-04-20 21:14 51.47807 -2.72815 9303 ft 276 kts 308°
2026-04-20 21:15 51.48964 -2.75284 10306 ft 277 kts 309°
2026-04-20 21:15 51.50198 -2.77806 10770 ft 297 kts 309°
2026-04-20 21:15 51.51543 -2.80477 11163 ft 316 kts 310°
2026-04-20 21:15 51.52948 -2.83235 12000 ft 321 kts 310°
2026-04-20 21:16 51.54374 -2.86019 12822 ft 325 kts 309°
2026-04-20 21:16 51.55820 -2.88837 13631 ft 329 kts 309°
2026-04-20 21:16 51.57260 -2.91651 14392 ft 331 kts 309°
2026-04-20 21:16 51.58725 -2.94528 15148 ft 333 kts 309°
2026-04-20 21:17 51.60198 -2.97429 15908 ft 335 kts 308°
2026-04-20 21:17 51.61674 -3.00336 16665 ft 337 kts 308°
2026-04-20 21:17 51.63161 -3.03268 17420 ft 338 kts 308°
2026-04-20 21:17 51.64505 -3.06387 18151 ft 340 kts 303°
2026-04-20 21:18 51.65803 -3.09574 18840 ft 342 kts 303°
2026-04-20 21:18 51.67096 -3.12762 19469 ft 343 kts 302°
2026-04-20 21:18 51.68407 -3.16001 20113 ft 344 kts 302°
2026-04-20 21:18 51.69739 -3.19221 20742 ft 346 kts 306°
2026-04-20 21:19 51.71440 -3.21994 21325 ft 351 kts 320°
2026-04-20 21:19 51.73572 -3.23975 21897 ft 359 kts 334°
2026-04-20 21:19 51.76024 -3.24984 22481 ft 371 kts 349°
2026-04-20 21:20 51.81285 -3.24199 23629 ft 385 kts
2026-04-20 21:20 51.83942 -3.23531 24103 ft 388 kts
2026-04-20 21:20 51.86614 -3.22860 24293 ft 389 kts
2026-04-20 21:20 51.89261 -3.22192 24334 ft 380 kts
2026-04-20 21:21 51.91832 -3.21545 24338 ft 376 kts
2026-04-20 21:21 51.94410 -3.20904 24325 ft 374 kts
2026-04-20 21:21 51.96981 -3.20269 24321 ft 374 kts
2026-04-20 21:21 51.99560 -3.19632 24313 ft 374 kts
2026-04-20 21:22 52.02136 -3.18994 24315 ft 373 kts
2026-04-20 21:22 52.04697 -3.18471 24301 ft 368 kts 355°
2026-04-20 21:22 52.07254 -3.18279 24307 ft 367 kts 355°
2026-04-20 21:22 52.09807 -3.18090 24307 ft 367 kts 355°
2026-04-20 21:23 52.12360 -3.17900 24307 ft 367 kts 355°
2026-04-20 21:23 52.14912 -3.17706 24310 ft 367 kts 355°
2026-04-20 21:23 52.17456 -3.17509 24311 ft 367 kts 355°
2026-04-20 21:23 52.20018 -3.17308 24310 ft 367 kts 355°
2026-04-20 21:24 52.22571 -3.17111 24311 ft 367 kts 355°
2026-04-20 21:24 52.25126 -3.16916 24340 ft 367 kts 355°
2026-04-20 21:24 52.27675 -3.16721 24335 ft 367 kts 355°
2026-04-20 21:24 52.30226 -3.16525 24330 ft 367 kts 355°
2026-04-20 21:25 52.32777 -3.16327 24326 ft 367 kts 356°
2026-04-20 21:25 52.35318 -3.16129 24325 ft 366 kts 356°
2026-04-20 21:25 52.37874 -3.15927 24322 ft 366 kts 355°
2026-04-20 21:25 52.40394 -3.15730 24322 ft 367 kts 355°
2026-04-20 21:26 52.42942 -3.15534 24317 ft 366 kts 356°
2026-04-20 21:26 52.45489 -3.15337 24314 ft 366 kts 355°
2026-04-20 21:26 52.48040 -3.15140 24318 ft 366 kts 355°
2026-04-20 21:26 52.50586 -3.14945 24330 ft 367 kts 358°
2026-04-20 21:27 52.53142 -3.14748 24320 ft 367 kts 358°
2026-04-20 21:27 52.55693 -3.14546 24317 ft 368 kts 358°
2026-04-20 21:27 52.58261 -3.14343 24312 ft 369 kts 358°
2026-04-20 21:27 52.60827 -3.14140 24310 ft 369 kts 358°
2026-04-20 21:28 52.63395 -3.13936 24313 ft 370 kts 358°
2026-04-20 21:28 52.65969 -3.13732 24313 ft 370 kts 358°
2026-04-20 21:28 52.68541 -3.13529 24315 ft 370 kts 358°
2026-04-20 21:28 52.71113 -3.13353 24315 ft 369 kts 355°
2026-04-20 21:29 52.73618 -3.13694 24329 ft 365 kts 348°
2026-04-20 21:29 52.76134 -3.14299 24318 ft 366 kts 348°
2026-04-20 21:29 52.78653 -3.14898 24312 ft 367 kts 348°
2026-04-20 21:29 52.81184 -3.15494 24313 ft 367 kts 349°
2026-04-20 21:30 52.83719 -3.16088 24311 ft 368 kts 349°
2026-04-20 21:30 52.86247 -3.16682 24313 ft 368 kts 349°
2026-04-20 21:30 52.88783 -3.17239 24311 ft 369 kts 352°
2026-04-20 21:30 52.91367 -3.17245 24312 ft 372 kts 359°
2026-04-20 21:31 52.93970 -3.17037 24317 ft 373 kts 359°
2026-04-20 21:31 52.96558 -3.16835 24319 ft 373 kts 359°
2026-04-20 21:31 52.99152 -3.16633 24326 ft 373 kts 360°
2026-04-20 21:31 53.01754 -3.16427 24322 ft 374 kts 360°
2026-04-20 21:32 53.04348 -3.16221 24316 ft 374 kts 360°
2026-04-20 21:32 53.06953 -3.16017 24317 ft 374 kts 360°
2026-04-20 21:32 53.09553 -3.15811 24317 ft 375 kts
2026-04-20 21:32 53.12158 -3.15602 24318 ft 375 kts
2026-04-20 21:33 53.14774 -3.15388 24319 ft 375 kts
2026-04-20 21:33 53.17340 -3.15179 24321 ft 375 kts
2026-04-20 21:33 53.19946 -3.14973 24323 ft 372 kts 360°
2026-04-20 21:33 53.22468 -3.14772 24330 ft 354 kts
2026-04-20 21:34 53.24884 -3.14576 24327 ft 338 kts
2026-04-20 21:34 53.27214 -3.14387 24329 ft 333 kts
2026-04-20 21:34 53.29524 -3.14202 24330 ft 332 kts
2026-04-20 21:34 53.31820 -3.14024 24335 ft 331 kts 360°
2026-04-20 21:35 53.34125 -3.13866 24353 ft 331 kts 357°
2026-04-20 21:35 53.36406 -3.14201 24354 ft 328 kts 346°
2026-04-20 21:35 53.38594 -3.15211 24352 ft 325 kts 336°
2026-04-20 21:35 53.40626 -3.16844 24349 ft 323 kts 327°
2026-04-20 21:36 53.42443 -3.19046 24350 ft 322 kts 317°
2026-04-20 21:36 53.44030 -3.21669 24342 ft 322 kts 313°
2026-04-20 21:36 53.45585 -3.24330 24128 ft 323 kts 313°
2026-04-20 21:36 53.47182 -3.27049 23699 ft 321 kts 314°
2026-04-20 21:37 53.48740 -3.29707 23271 ft 318 kts 313°
2026-04-20 21:37 53.50262 -3.32309 22868 ft 316 kts 313°
2026-04-20 21:37 53.51813 -3.34967 22458 ft 314 kts 314°
2026-04-20 21:37 53.53341 -3.37591 22052 ft 313 kts 314°
2026-04-20 21:38 53.54861 -3.40203 21646 ft 310 kts 314°
2026-04-20 21:38 53.56351 -3.42759 21240 ft 311 kts 314°
2026-04-20 21:38 53.57834 -3.45396 20828 ft 309 kts 309°
2026-04-20 21:38 53.59109 -3.48303 20419 ft 309 kts 305°
2026-04-20 21:39 53.60351 -3.51259 20021 ft 309 kts 305°
2026-04-20 21:39 53.61595 -3.54216 19616 ft 309 kts 305°
2026-04-20 21:39 53.62837 -3.57166 19234 ft 309 kts 305°
2026-04-20 21:39 53.64084 -3.60132 18818 ft 310 kts 306°
2026-04-20 21:40 53.65331 -3.63097 18379 ft 311 kts 306°
2026-04-20 21:40 53.66578 -3.66072 17979 ft 310 kts 306°
2026-04-20 21:40 53.67820 -3.69039 17600 ft 308 kts 306°
2026-04-20 21:40 53.69048 -3.71983 17243 ft 307 kts 305°
2026-04-20 21:41 53.70284 -3.74949 16804 ft 308 kts 306°
2026-04-20 21:41 53.71511 -3.77895 16474 ft 306 kts 306°
2026-04-20 21:41 53.72732 -3.80824 16112 ft 306 kts 306°
2026-04-20 21:41 53.73951 -3.83750 15871 ft 301 kts 306°
2026-04-20 21:42 53.75134 -3.86591 15631 ft 297 kts 305°
2026-04-20 21:42 53.76334 -3.89480 15319 ft 296 kts 306°
2026-04-20 21:42 53.77513 -3.92325 15009 ft 295 kts 306°
2026-04-20 21:42 53.78667 -3.95120 14703 ft 294 kts 306°
2026-04-20 21:43 53.79835 -3.97951 14389 ft 293 kts 306°
2026-04-20 21:43 53.81003 -4.00777 14095 ft 292 kts 306°
2026-04-20 21:43 53.82163 -4.03581 13763 ft 290 kts 306°
2026-04-20 21:43 53.83314 -4.06369 13187 ft 290 kts 306°
2026-04-20 21:44 53.84498 -4.09247 12136 ft 302 kts 305°
2026-04-20 21:44 53.85680 -4.12132 11856 ft 295 kts 305°
2026-04-20 21:44 53.86845 -4.14969 11519 ft 293 kts 305°
2026-04-20 21:44 53.88008 -4.17798 11143 ft 293 kts 305°
2026-04-20 21:45 53.89167 -4.20627 10750 ft 293 kts 304°
2026-04-20 21:45 53.90324 -4.23460 10455 ft 290 kts 304°
2026-04-20 21:45 53.91426 -4.26318 10397 ft 289 kts 296°
2026-04-20 21:45 53.92197 -4.29457 10278 ft 289 kts 290°
2026-04-20 21:46 53.92894 -4.32659 10119 ft 289 kts 289°
2026-04-20 21:46 53.93593 -4.35857 9854 ft 290 kts 289°
2026-04-20 21:46 53.94293 -4.39058 9576 ft 288 kts 289°
2026-04-20 21:46 53.94983 -4.42191 9295 ft 274 kts 290°
2026-04-20 21:47 53.95630 -4.45153 9023 ft 258 kts 289°
2026-04-20 21:47 53.96238 -4.47918 8756 ft 244 kts 289°
2026-04-20 21:47 53.96806 -4.50515 8487 ft 232 kts 288°
2026-04-20 21:47 53.97214 -4.53149 8240 ft 229 kts 281°
2026-04-20 21:48 53.97537 -4.55794 7981 ft 229 kts 279°
2026-04-20 21:48 53.97861 -4.58447 7689 ft 228 kts 280°
2026-04-20 21:48 53.98171 -4.61086 7380 ft 228 kts 279°
2026-04-20 21:48 53.98500 -4.63722 7077 ft 228 kts 279°
2026-04-20 21:49 53.98836 -4.66361 6742 ft 230 kts 279°
2026-04-20 21:49 53.99181 -4.69042 6346 ft 233 kts 279°
2026-04-20 21:49 53.99529 -4.71748 5958 ft 236 kts 279°
2026-04-20 21:49 53.99866 -4.74505 5579 ft 240 kts 279°
2026-04-20 21:50 54.00184 -4.77318 5187 ft 243 kts 280°
2026-04-20 21:50 54.00489 -4.80100 4781 ft 238 kts 279°
2026-04-20 21:50 54.00794 -4.82853 4294 ft 237 kts 279°
2026-04-20 21:50 54.01095 -4.85621 3764 ft 239 kts 279°
2026-04-20 21:51 54.01380 -4.88362 3489 ft 231 kts 279°
2026-04-20 21:51 54.01664 -4.90959 3213 ft 222 kts 286°
2026-04-20 21:51 54.02377 -4.93210 2954 ft 214 kts 315°
2026-04-20 21:51 54.03561 -4.94590 2821 ft 202 kts 348°
2026-04-20 21:52 54.04876 -4.94563 2728 ft 183 kts 28°
2026-04-20 21:52 54.05888 -4.93368 2648 ft 175 kts 55°
2026-04-20 21:52 54.06157 -4.91490 2621 ft 166 kts 99°
2026-04-20 21:52 54.06045 -4.89535 2628 ft 167 kts 84°
2026-04-20 21:53 54.06224 -4.87578 2628 ft 167 kts 86°
2026-04-20 21:53 54.06213 -4.85643 2592 ft 157 kts 98°
2026-04-20 21:53 54.06069 -4.83848 2506 ft 150 kts 97°
2026-04-20 21:53 54.06020 -4.82107 2402 ft 142 kts 88°
2026-04-20 21:54 54.06147 -4.80529 2318 ft 132 kts 83°
2026-04-20 21:54 54.06285 -4.79007 2273 ft 129 kts 85°
2026-04-20 21:54 54.06420 -4.77508 2076 ft 128 kts 84°
2026-04-20 21:54 54.06589 -4.76023 1896 ft 128 kts 80°
2026-04-20 21:55 54.06793 -4.74555 1711 ft 127 kts 81°
2026-04-20 21:55 54.06993 -4.73081 1359 ft 127 kts 81°
2026-04-20 21:55 54.07176 -4.71626 1040 ft 125 kts 81°
2026-04-20 21:55 54.07364 -4.70175 822 ft 126 kts 80°
2026-04-20 21:56 54.07539 -4.68726 679 ft 123 kts 79°
2026-04-20 21:56 54.07651 -4.67746 554 ft 129 kts 81°
2026-04-20 21:56 54.07820 -4.66275 376 ft 128 kts 72°
2026-04-20 21:56 54.08021 -4.64816 206 ft 126 kts 76°
2026-04-20 21:57 54.08203 -4.63369 48 ft 123 kts 77°
2026-04-20 21:57 54.08343 -4.62262 41 ft 56 kts 78°
2026-04-20 21:57 54.08387 -4.61899 41 ft 25 kts 78°
2026-04-20 21:57 54.08420 -4.61640 43 ft 21 kts 78°
2026-04-20 21:58 54.08442 -4.61473 40 ft 7 kts 71°
2026-04-20 21:58 54.08483 -4.61423 42 ft 8 kts 14°
2026-04-20 21:58 54.08519 -4.61457 43 ft 5 kts 312°
2026-04-20 21:58 54.08531 -4.61502 43 ft 4 kts 285°
2026-04-20 21:59 54.08535 -4.61548 43 ft 4 kts 279°
2026-04-20 21:59 54.08539 -4.61596 41 ft 5 kts 276°
2026-04-20 21:59 54.08543 -4.61667 42 ft 7 kts 276°
2026-04-20 21:59 54.08549 -4.61746 42 ft 7 kts 277°
2026-04-20 22:00 54.08553 -4.61836 43 ft 8 kts 270°
2026-04-20 22:00 54.08547 -4.61931 45 ft 8 kts 259°
2026-04-20 22:00 54.08535 -4.62030 44 ft 9 kts 258°
2026-04-20 22:00 54.08520 -4.62151 47 ft 10 kts 258°
2026-04-20 22:01 54.08507 -4.62257 48 ft 8 kts 258°
2026-04-20 22:01 54.08494 -4.62357 51 ft 10 kts 257°
2026-04-20 22:01 54.08477 -4.62488 45 ft 13 kts 258°
2026-04-20 22:01 54.08457 -4.62646 45 ft 14 kts 258°
2026-04-20 22:02 54.08442 -4.62767 43 ft 9 kts 258°
2026-04-20 22:02 54.08429 -4.62873 43 ft 9 kts 258°
2026-04-20 22:02 54.08420 -4.62959 41 ft 4 kts 266°
2026-04-20 22:02 54.08443 -4.62988 42 ft 4 kts 345°
2026-04-20 22:03 54.08478 -4.63002 43 ft 6 kts 347°
2026-04-20 22:03 54.08528 -4.63021 45 ft 7 kts 348°
2026-04-20 22:03 54.08579 -4.63049 46 ft 9 kts 327°
2026-04-20 22:03 54.08615 -4.63109 45 ft 5 kts 315°
2026-04-20 22:04 54.08638 -4.63147 45 ft 4 kts 315°
2026-04-20 22:04 54.08656 -4.63179 45 ft 3 kts 312°
2026-04-20 22:04 54.08659 -4.63213 45 ft 4 kts 253°
2026-04-20 22:04 54.08643 -4.63244 44 ft 3 kts 224°
2026-04-20 22:05 54.08632 -4.63261 45 ft 1 kts 224°
2026-04-20 22:05 54.08630 -4.63265 45 ft 0 kts 224°